Darstellungsparameter: Aktuell verwendete Einstellungen:
Skalierung der Graphiken ... ?
xyx+y,   Skalierungsfaktor:      Skalierung: Modus: x, Faktor: 1
Darstellungszeitraum ... ?
Vom - - bis: - -   Zeitraum: 28.12.2019 - 28.12.2019
Min/Max/Avg-Anzeige ... ?
Zeige MMA aktuell
Zeige MMA Monat
Zeige MMA alles
Zeige --A aktuell
Zeige --A Monat
Zeige --A alles
Keine MMA-Anzeige
MMA:
Average (ber die Originaldaten)
MMA-Basis: 28.12.2019 - 28.12.2019
Quicknavigation für Darstellung... ?
Tage:      1T, 2T, 3T, 5T -1T -2T -3T -5T +1T +2T +3T +5T
Wochen: 1W, 2W, 3W -1W -2W -3W +1W +2W +3W
Monate: 1M, 3M, 6M -1M -3M -6M +1M +3M +6M
Jahre:    1J, 3J, 5J, 10J -1J -3J -5J -10J +1J +3J +5J +10J
Nutze für die Darstellung ... ?
Originaldaten oder Mittelwerte auf ...
Stundenbasis Tagesbasis Wochenbasis
Monatsbasis Jahresbasis      Datenbasis: Original-Daten
Darstellen als:
Statistik (Auto) Statistik J:M      Darstellung:
Zur Graphik,    zurück zur Übersicht aller Sensoren.
 
Tabellarische Datenbersicht: ?
 
Sensor: Nr:Datum:Temp:Feuchte:
Aussen-T/F 1 28-12-2019 00:03:17 0.5 C 40 %
2 28-12-2019 00:13:17 0.4 C 41 %
3 28-12-2019 00:23:18 0.4 C 41 %
4 28-12-2019 00:33:17 0.3 C 41 %
5 28-12-2019 00:43:17 0.3 C 41 %
6 28-12-2019 00:53:17 0.2 C 40 %
7 28-12-2019 01:03:17 0.1 C 40 %
8 28-12-2019 01:13:17 -0.2 C 43 %
9 28-12-2019 01:23:17 -0.5 C 43 %
10 28-12-2019 01:33:17 -0.3 C 44 %
11 28-12-2019 01:43:17 -0.7 C 42 %
12 28-12-2019 01:53:17 -1.1 C 43 %
13 28-12-2019 02:03:17 -1.3 C 45 %
14 28-12-2019 02:13:17 -1.5 C 44 %
15 28-12-2019 02:23:17 -1.7 C 44 %
16 28-12-2019 02:33:18 -1.5 C 45 %
17 28-12-2019 02:43:18 -1.5 C 45 %
18 28-12-2019 02:53:17 -1.6 C 45 %
19 28-12-2019 03:03:17 -1.9 C 45 %
20 28-12-2019 03:13:18 -1.7 C 45 %
21 28-12-2019 03:23:17 -2.1 C 45 %
22 28-12-2019 03:33:17 -2.1 C 45 %
23 28-12-2019 03:43:17 -2.1 C 45 %
24 28-12-2019 03:53:18 -2.4 C 45 %
25 28-12-2019 04:03:17 -2.4 C 45 %
Sensor: Nr:Datum:Temp:Feuchte:
Aussen-T/F 26 28-12-2019 04:13:17 -2.4 C 45 %
27 28-12-2019 04:23:17 -2.3 C 45 %
28 28-12-2019 04:33:17 -2.4 C 45 %
29 28-12-2019 04:43:18 -2.3 C 45 %
30 28-12-2019 04:53:17 -2.4 C 45 %
31 28-12-2019 05:03:18 -2.6 C 44 %
32 28-12-2019 05:13:18 -2.7 C 44 %
33 28-12-2019 05:23:17 -2.5 C 45 %
34 28-12-2019 05:33:18 -2.5 C 45 %
35 28-12-2019 05:43:18 -2.1 C 45 %
36 28-12-2019 05:53:17 -2.3 C 45 %
37 28-12-2019 06:03:17 -1.8 C 45 %
38 28-12-2019 06:13:18 -2.1 C 44 %
39 28-12-2019 06:23:17 -2.2 C 43 %
40 28-12-2019 06:33:17 -2 C 44 %
41 28-12-2019 06:43:18 -1.9 C 44 %
42 28-12-2019 06:53:17 -2.1 C 43 %
43 28-12-2019 07:03:18 -2 C 43 %
44 28-12-2019 07:13:18 -2.3 C 43 %
45 28-12-2019 07:23:17 -2.8 C 42 %
46 28-12-2019 07:33:17 -2.3 C 43 %
47 28-12-2019 07:43:17 -2.4 C 43 %
48 28-12-2019 07:53:17 -2.2 C 44 %
49 28-12-2019 08:03:17 -2.6 C 43 %
50 28-12-2019 08:13:17 -3 C 42 %
Sensor: Nr:Datum:Temp:Feuchte:
Aussen-T/F 51 28-12-2019 08:23:18 -3.1 C 42 %
52 28-12-2019 08:33:17 -3.2 C 42 %
53 28-12-2019 08:43:17 -3.2 C 42 %
54 28-12-2019 08:53:17 -2.9 C 43 %
55 28-12-2019 09:03:18 -2.9 C 43 %
56 28-12-2019 09:13:18 -2.8 C 43 %
57 28-12-2019 09:23:17 -2.7 C 43 %
58 28-12-2019 09:33:17 -2.5 C 43 %
59 28-12-2019 09:43:17 -1.9 C 45 %
60 28-12-2019 09:53:17 -1.7 C 45 %
61 28-12-2019 10:03:17 -1.6 C 45 %
62 28-12-2019 10:13:17 -1.4 C 45 %
63 28-12-2019 10:23:17 -1.5 C 45 %
64 28-12-2019 10:33:18 -1.3 C 45 %
65 28-12-2019 10:43:18 -1.3 C 45 %
66 28-12-2019 10:53:17 -1.1 C 45 %
67 28-12-2019 11:03:18 -1 C 44 %
68 28-12-2019 11:13:18 -0.9 C 44 %
69 28-12-2019 11:23:17 -0.6 C 44 %
70 28-12-2019 11:33:17 -0.5 C 43 %
71 28-12-2019 11:43:18 -0.3 C 42 %
72 28-12-2019 11:53:17 -0.2 C 42 %
73 28-12-2019 12:03:17 -0.2 C 41 %
74 28-12-2019 12:13:17 0 C 41 %
75 28-12-2019 12:23:17 0.2 C 41 %
Sensor: Nr:Datum:Temp:Feuchte:
Aussen-T/F 76 28-12-2019 12:33:17 0.3 C 41 %
77 28-12-2019 12:43:18 0.4 C 40 %
78 28-12-2019 12:53:17 0.5 C 40 %
79 28-12-2019 13:03:18 0.7 C 40 %
80 28-12-2019 13:13:18 0.8 C 40 %
81 28-12-2019 13:23:17 0.8 C 40 %
82 28-12-2019 13:33:17 0.9 C 40 %
83 28-12-2019 13:43:17 0.8 C 40 %
84 28-12-2019 13:53:17 0.6 C 40 %
85 28-12-2019 14:03:17 0.6 C 41 %
86 28-12-2019 14:13:17 0.7 C 41 %
87 28-12-2019 14:23:17 0.8 C 40 %
88 28-12-2019 14:33:17 0.7 C 40 %
89 28-12-2019 14:43:17 0.6 C 40 %
90 28-12-2019 14:53:17 0.5 C 40 %
91 28-12-2019 15:03:17 0.5 C 40 %
92 28-12-2019 15:13:18 0.5 C 40 %
93 28-12-2019 15:23:17 0.2 C 40 %
94 28-12-2019 15:33:17 0.4 C 40 %
95 28-12-2019 15:43:17 0.3 C 39 %
96 28-12-2019 15:53:18 0.4 C 39 %
97 28-12-2019 16:03:17 0.3 C 38 %
98 28-12-2019 16:13:17 0.2 C 38 %
99 28-12-2019 16:23:17 0 C 39 %
100 28-12-2019 16:33:17 0 C 39 %
Sensor: Nr:Datum:Temp:Feuchte:
Aussen-T/F 101 28-12-2019 16:43:17 -0.1 C 38 %
102 28-12-2019 16:53:17 -0.3 C 39 %
103 28-12-2019 17:03:17 -0.4 C 39 %
104 28-12-2019 17:13:17 -0.4 C 40 %
105 28-12-2019 17:23:17 -0.5 C 40 %
106 28-12-2019 17:33:18 -0.6 C 40 %
107 28-12-2019 17:43:18 -0.7 C 41 %
108 28-12-2019 17:53:17 -1.3 C 41 %
109 28-12-2019 18:03:17 -1.2 C 44 %
110 28-12-2019 18:13:17 -1.1 C 43 %
111 28-12-2019 18:23:17 -1.1 C 43 %
112 28-12-2019 18:33:17 -0.9 C 43 %
113 28-12-2019 18:43:17 -1.2 C 43 %
114 28-12-2019 18:53:17 -0.9 C 43 %
115 28-12-2019 19:03:17 -1.2 C 42 %
116 28-12-2019 19:13:18 -1.7 C 42 %
117 28-12-2019 19:23:17 -1.9 C 43 %
118 28-12-2019 19:33:18 -1.9 C 44 %
119 28-12-2019 19:43:18 -1.9 C 44 %
120 28-12-2019 19:53:17 -1.8 C 44 %
121 28-12-2019 20:03:17 -1.9 C 44 %
122 28-12-2019 20:13:17 -1.7 C 45 %
123 28-12-2019 20:23:17 -1.2 C 45 %
124 28-12-2019 20:33:18 -1.2 C 43 %
125 28-12-2019 20:43:18 -1.4 C 43 %
Sensor: Nr:Datum:Temp:Feuchte:
Aussen-T/F 126 28-12-2019 20:53:18 -1.2 C 44 %
127 28-12-2019 21:03:17 -1.6 C 43 %
128 28-12-2019 21:13:17 -1.3 C 44 %
129 28-12-2019 21:23:17 -1.4 C 41 %
130 28-12-2019 21:33:17 -1.8 C 41 %
131 28-12-2019 21:43:18 -1.6 C 43 %
132 28-12-2019 21:53:17 -1.7 C 42 %
133 28-12-2019 22:03:18 -1.7 C 42 %
134 28-12-2019 22:13:18 -2.2 C 41 %
135 28-12-2019 22:23:17 -2.3 C 42 %
136 28-12-2019 22:33:17 -2.3 C 42 %
137 28-12-2019 22:43:17 -2.5 C 42 %
138 28-12-2019 22:53:17 -2.2 C 43 %
139 28-12-2019 23:03:17 -2.5 C 42 %
140 28-12-2019 23:13:17 -2.3 C 43 %
141 28-12-2019 23:23:17 -2.3 C 43 %
142 28-12-2019 23:33:17 -2.7 C 42 %
143 28-12-2019 23:43:17 -2.6 C 43 %
144 28-12-2019 23:53:17 -2.9 C 42 %
Sensor: Nr:Datum:Temp:Feuchte:
G-T/H 1 28-12-2019 00:03:17 9.6 C 74 %
2 28-12-2019 00:13:17 9.6 C 74 %
3 28-12-2019 00:23:18 9.6 C 74 %
4 28-12-2019 00:33:17 9.6 C 74 %
5 28-12-2019 00:43:17 9.6 C 74 %
6 28-12-2019 00:53:17 9.5 C 74 %
7 28-12-2019 01:03:17 9.6 C 74 %
8 28-12-2019 01:13:17 9.5 C 74 %
9 28-12-2019 01:23:17 9.5 C 74 %
10 28-12-2019 01:33:17 9.5 C 74 %
11 28-12-2019 01:43:17 9.5 C 74 %
12 28-12-2019 01:53:17 9.5 C 74 %
13 28-12-2019 02:03:17 9.4 C 73 %
14 28-12-2019 02:13:17 9.4 C 73 %
15 28-12-2019 02:23:17 9.5 C 73 %
16 28-12-2019 02:33:18 9.3 C 73 %
17 28-12-2019 02:43:18 9.4 C 73 %
18 28-12-2019 02:53:17 9.3 C 73 %
19 28-12-2019 03:03:17 9.3 C 73 %
20 28-12-2019 03:13:18 9.3 C 73 %
21 28-12-2019 03:23:17 9.3 C 73 %
22 28-12-2019 03:33:17 9.2 C 73 %
23 28-12-2019 03:43:17 9.3 C 73 %
24 28-12-2019 03:53:18 9.3 C 73 %
25 28-12-2019 04:03:17 9.2 C 73 %
Sensor: Nr:Datum:Temp:Feuchte:
G-T/H 26 28-12-2019 04:13:17 9.2 C 72 %
27 28-12-2019 04:23:17 9.2 C 72 %
28 28-12-2019 04:33:17 9.2 C 72 %
29 28-12-2019 04:43:18 9.2 C 72 %
30 28-12-2019 04:53:17 9.1 C 72 %
31 28-12-2019 05:03:18 9.1 C 72 %
32 28-12-2019 05:13:18 9.1 C 72 %
33 28-12-2019 05:23:17 9 C 72 %
34 28-12-2019 05:33:18 9.1 C 72 %
35 28-12-2019 05:43:18 9 C 72 %
36 28-12-2019 05:53:17 9.1 C 72 %
37 28-12-2019 06:03:17 9 C 72 %
38 28-12-2019 06:13:18 9 C 72 %
39 28-12-2019 06:23:17 9 C 72 %
40 28-12-2019 06:33:17 9 C 72 %
41 28-12-2019 06:43:18 9 C 71 %
42 28-12-2019 06:53:17 8.9 C 72 %
43 28-12-2019 07:03:18 8.8 C 72 %
44 28-12-2019 07:13:18 8.9 C 72 %
45 28-12-2019 07:23:17 8.9 C 72 %
46 28-12-2019 07:33:17 8.9 C 72 %
47 28-12-2019 07:43:17 8.8 C 72 %
48 28-12-2019 07:53:17 8.8 C 72 %
49 28-12-2019 08:03:17 8.8 C 72 %
50 28-12-2019 08:13:17 8.8 C 72 %
Sensor: Nr:Datum:Temp:Feuchte:
G-T/H 51 28-12-2019 08:23:18 8.7 C 72 %
52 28-12-2019 08:33:17 8.7 C 72 %
53 28-12-2019 08:43:17 8.7 C 72 %
54 28-12-2019 08:53:17 8.7 C 72 %
55 28-12-2019 09:03:18 8.7 C 72 %
56 28-12-2019 09:13:18 8.7 C 72 %
57 28-12-2019 09:23:17 8.6 C 72 %
58 28-12-2019 09:33:17 8.6 C 72 %
59 28-12-2019 09:43:17 6.6 C 62 %
60 28-12-2019 09:53:17 5.6 C 61 %
61 28-12-2019 10:03:17 5.2 C 61 %
62 28-12-2019 10:13:17 5.1 C 61 %
63 28-12-2019 10:23:17 5.4 C 61 %
64 28-12-2019 10:33:18 7.2 C 62 %
65 28-12-2019 10:43:18 8 C 62 %
66 28-12-2019 10:53:17 8.2 C 63 %
67 28-12-2019 11:03:18 8.2 C 64 %
68 28-12-2019 11:13:18 8.2 C 64 %
69 28-12-2019 11:23:17 8.2 C 65 %
70 28-12-2019 11:33:17 8.2 C 65 %
71 28-12-2019 11:43:18 8.2 C 66 %
72 28-12-2019 11:53:17 8.3 C 67 %
73 28-12-2019 12:03:17 8.4 C 67 %
74 28-12-2019 12:13:17 8.4 C 67 %
75 28-12-2019 12:23:17 8.3 C 68 %
Sensor: Nr:Datum:Temp:Feuchte:
G-T/H 76 28-12-2019 12:33:17 8.3 C 68 %
77 28-12-2019 12:43:18 8.2 C 68 %
78 28-12-2019 12:53:17 8.2 C 68 %
79 28-12-2019 13:03:18 8.2 C 69 %
80 28-12-2019 13:13:18 8.2 C 69 %
81 28-12-2019 13:23:17 8.2 C 69 %
82 28-12-2019 13:33:17 8.2 C 69 %
83 28-12-2019 13:43:17 8.2 C 69 %
84 28-12-2019 13:53:17 8.2 C 69 %
85 28-12-2019 14:03:17 8.2 C 69 %
86 28-12-2019 14:13:17 8.1 C 70 %
87 28-12-2019 14:23:17 8.2 C 70 %
88 28-12-2019 14:33:17 8.2 C 70 %
89 28-12-2019 14:43:17 8.2 C 70 %
90 28-12-2019 14:53:17 8.1 C 70 %
91 28-12-2019 15:03:17 8.1 C 70 %
92 28-12-2019 15:13:18 8.1 C 70 %
93 28-12-2019 15:23:17 8.1 C 70 %
94 28-12-2019 15:33:17 8.1 C 70 %
95 28-12-2019 15:43:17 8 C 70 %
96 28-12-2019 15:53:18 8.1 C 70 %
97 28-12-2019 16:03:17 7.8 C 69 %
98 28-12-2019 16:13:17 7.9 C 69 %
99 28-12-2019 16:23:17 8 C 68 %
100 28-12-2019 16:33:17 8 C 69 %
Sensor: Nr:Datum:Temp:Feuchte:
G-T/H 101 28-12-2019 16:43:17 8 C 69 %
102 28-12-2019 16:53:17 8 C 69 %
103 28-12-2019 17:03:17 8 C 69 %
104 28-12-2019 17:13:17 8 C 69 %
105 28-12-2019 17:23:17 8 C 69 %
106 28-12-2019 17:33:18 8 C 69 %
107 28-12-2019 17:43:18 8 C 69 %
108 28-12-2019 17:53:17 8 C 69 %
109 28-12-2019 18:03:17 7.9 C 70 %
110 28-12-2019 18:13:17 8 C 69 %
111 28-12-2019 18:23:17 8 C 69 %
112 28-12-2019 18:33:17 7.9 C 70 %
113 28-12-2019 18:43:17 8 C 70 %
114 28-12-2019 18:53:17 8 C 70 %
115 28-12-2019 19:03:17 8 C 70 %
116 28-12-2019 19:13:18 7.9 C 71 %
117 28-12-2019 19:23:17 7.9 C 71 %
118 28-12-2019 19:33:18 7.9 C 71 %
119 28-12-2019 19:43:18 7.9 C 71 %
120 28-12-2019 19:53:17 7.9 C 71 %
121 28-12-2019 20:03:17 7.9 C 71 %
122 28-12-2019 20:13:17 7.9 C 71 %
123 28-12-2019 20:23:17 7.9 C 71 %
124 28-12-2019 20:33:18 7.9 C 71 %
125 28-12-2019 20:43:18 7.9 C 71 %
Sensor: Nr:Datum:Temp:Feuchte:
G-T/H 126 28-12-2019 20:53:18 7.9 C 71 %
127 28-12-2019 21:03:17 7.9 C 71 %
128 28-12-2019 21:13:17 7.9 C 71 %
129 28-12-2019 21:23:17 7.9 C 71 %
130 28-12-2019 21:33:17 7.9 C 71 %
131 28-12-2019 21:43:18 7.8 C 71 %
132 28-12-2019 21:53:17 7.8 C 71 %
133 28-12-2019 22:03:18 7.8 C 71 %
134 28-12-2019 22:13:18 7.8 C 71 %
135 28-12-2019 22:23:17 7.8 C 71 %
136 28-12-2019 22:33:17 7.8 C 71 %
137 28-12-2019 22:43:17 7.8 C 71 %
138 28-12-2019 22:53:17 7.8 C 71 %
139 28-12-2019 23:03:17 7.8 C 71 %
140 28-12-2019 23:13:17 7.8 C 71 %
141 28-12-2019 23:23:17 7.8 C 71 %
142 28-12-2019 23:33:17 7.8 C 70 %
143 28-12-2019 23:43:17 7.7 C 70 %
144 28-12-2019 23:53:17 7.7 C 70 %

Legende:
   Min
   Max


Maximal/Minimal-Werte vom 28.12.2019 - 28.12.2019

Sensor Min Max Avg
Temp
(Aussen-T/F)
-3.2 °C
28-12-2019  08:33:17
0.9 °C
28-12-2019  13:33:17
-1.22 °C
Feuchte
(Aussen-T/F)
38 %
28-12-2019  16:03:17
45 %
28-12-2019  02:03:17
42.5 %
Temp
(G-T/H)
5.1 °C
28-12-2019  10:13:17
9.6 °C
28-12-2019  00:03:17
8.38 °C
Feuchte
(G-T/H)
61 %
28-12-2019  09:53:17
74 %
28-12-2019  00:03:17
70.32 %

Die Daten stammen von einer Davis Vantage Pro 2 Wetter-Station und werden unter Linux mit der Software wview2wettercgi und aufbereitet. Alle Angaben erfolgen ohne Gewähr für ihre Vollständigkeit oder Richtigkeit.
Kontakt: Rainer Krienke krienke@uni-koblenz.de . Meine Webseiten an der Uni Koblenz oder privat.
Version: $Revision: 0.78 $